Simultaneous Nadir Overpasses (SNOs) Predictions

Prediction of SNOs between GOES-14 and AQUA Satellite Orbit:

Table of predicted SNOs for the next 14.0 days since TLE Epoch: 12/19/2020
Index Date Time (GOES-14) GOES-14 Lat,Lon AQUA Lat,Lon Distance(km) Time Diff (sec)
1 12/19/2020 08:35:38 -0.07,-104.37 0.03,-104.72 40.35 80
2 12/21/2020 08:20:48 -0.07,-104.37 -0.65,-101.77 295.78 80
3 12/21/2020 20:42:11 0.08,-104.09 -0.50,-106.96 325.39 80
4 12/23/2020 20:32:41 0.08,-104.09 0.12,-104.00 11.50 80
5 12/25/2020 20:20:30 0.07,-104.10 0.75,-101.04 347.83 80
6 12/26/2020 08:41:45 -0.08,-104.38 0.30,-106.21 207.47 80
7 12/28/2020 08:26:54 -0.07,-104.38 -0.33,-103.25 128.83 80
8 12/28/2020 20:48:17 0.08,-104.09 -0.87,-108.43 493.54 80
9 12/30/2020 08:14:42 -0.06,-104.38 -0.91,-100.29 464.80 80
10 12/30/2020 20:36:06 0.07,-104.09 -0.23,-105.47 157.43 80
11 01/01/2021 20:26:35 0.06,-104.09 0.41,-102.52 178.48 80
